Location: Sobotiste
(48.7170°N, 17.4000°E)
Time: 15:43:24
(UTC+02:00)

BlueWalker 3 - Visible Passes

Search period start: 21 May 2026 00:00
Search period end: 31 May 2026 00:00
Orbit: 447 x 457 km, 53.2° (Epoch: 21 May)

Date Brightness Start Highest point End Pass type
(mag) Time Alt. Az. Time Alt. Az. Time Alt. Az.
21 May 3.1 01:11:36 10° WNW 01:14:58 39° N 01:18:20 10° ENE visible
21 May 2.7 02:49:20 10° WNW 02:52:48 49° NNE 02:56:16 10° E visible
21 May 3.4 21:21:29 10° S 21:23:35 15° SE 21:25:40 10° E visible
21 May 1.5 22:56:56 10° WSW 23:00:28 76° SSE 23:04:01 10° ENE visible
22 May 3.0 00:34:40 10° W 00:38:04 41° N 00:41:28 10° ENE visible
22 May 2.9 02:12:29 10° WNW 02:15:55 45° NNE 02:19:20 10° E visible
22 May 1.7 03:49:55 10° WNW 03:53:26 61° SSW 03:56:55 10° SE visible
22 May 1.6 22:20:09 10° SW 22:23:39 60° SSE 22:27:09 10° ENE visible
22 May 2.8 23:57:44 10° W 00:01:10 45° NNW 00:04:35 10° ENE visible
23 May 3.0 01:35:38 10° WNW 01:39:00 41° N 01:42:24 10° E visible
23 May 1.6 03:13:03 10° WNW 03:16:37 76° SSW 03:20:08 10° ESE visible
23 May 1.9 21:43:25 10° SW 21:46:51 47° SE 21:50:16 10° ENE visible
23 May 2.6 23:20:47 10° W 23:24:16 50° NNW 23:27:44 10° ENE visible
24 May 3.1 00:58:44 10° WNW 01:02:06 39° N 01:05:27 10° ENE visible
24 May 1.6 02:36:12 10° WNW 02:39:46 88° NNE 02:43:19 10° ESE visible
24 May 3.1 04:14:10 10° W 04:16:46 19° SW 04:19:23 10° S visible
24 May 2.4 22:43:52 10° W 22:47:22 56° NNW 22:50:52 10° ENE visible
25 May 3.2 00:21:49 10° WNW 00:25:10 38° N 00:28:31 10° ENE visible
25 May 1.8 01:59:21 10° WNW 02:02:54 73° NNE 02:06:26 10° ESE visible
25 May 2.7 03:37:05 10° W 03:40:01 25° SW 03:42:58 10° SSE visible
25 May 2.1 22:06:56 10° WSW 22:10:28 65° NNW 22:14:00 10° ENE visible
25 May 3.2 23:44:53 10° WNW 23:48:14 38° N 23:51:34 10° ENE visible
26 May 2.1 01:22:29 10° WNW 01:26:00 62° NNE 01:29:31 10° ESE visible
26 May 2.4 03:00:04 10° WNW 03:03:15 31° SW 03:06:25 10° SSE visible
26 May 1.9 21:30:01 10° WSW 21:33:35 78° NNW 21:37:08 10° ENE visible
26 May 3.2 23:07:55 10° WNW 23:11:17 38° N 23:14:39 10° ENE visible
27 May 2.4 00:45:36 10° WNW 00:49:06 54° NNE 00:52:35 10° E visible
27 May 2.2 02:23:06 10° WNW 02:26:04 38° SW 02:26:04 38° SW visible
27 May 3.1 22:30:58 10° WNW 22:34:20 40° N 22:37:43 10° ENE visible
28 May 2.6 00:08:43 10° WNW 00:12:10 48° NNE 00:15:23 12° E visible
28 May 2.2 01:46:10 10° WNW 01:48:57 43° WSW 01:48:57 43° WSW visible
28 May 3.0 21:53:59 10° W 21:57:23 42° N 22:00:47 10° ENE visible
28 May 2.8 23:31:49 10° WNW 23:35:14 44° N 23:38:39 10° E visible
29 May 1.7 01:09:15 10° WNW 01:12:26 60° WSW 01:12:26 60° WSW visible
29 May 2.9 21:16:59 10° W 21:20:26 46° NNW 21:23:52 10° ENE visible
29 May 3.0 22:54:53 10° WNW 22:58:16 41° N 23:01:39 10° E visible
30 May 1.5 00:32:20 10° WNW 00:35:53 81° SSW 00:36:10 73° SSE visible
30 May 3.1 22:17:56 10° WNW 22:21:18 39° N 22:24:40 10° ENE visible
